THA911 EGLL-VTSP

Flight info

Callsign THA911
Flight time N/A
Altitude 33000
Route DET L6 DVR L9 KONAN UL607 KOK DCT MATUG DCT AMASI DCT BOMBI DCT TENLO DCT DEXIT DCT MAREG DCT ALAMU DCT BUDOP DCT UDROS UM859 KARDE/N0488F350 UN644 ROLIN N644 LAGAS M747 SULEL N449 DUKAN B449 RANAH L750 MERUN L333 KABEL/N0497F370 L333 KKJ/N0498F270 W49 BBS/N0495F370 L759 SATVA SATVA1C
Aircraft B77W/H-SDE1E2E3FGHIJ2J3J4J5M1RWXY/LB1D1

Departure

Time 2026-05-07 10:23
Airport London Heathrow Airport (EGLL)

Arrival

Time N/A
Airport Phuket International Airport (VTSP)
Time Latitude Longitude Altitude Speed Heading
2026-05-07 09:21 51.47268 -0.44194 98 ft 0 kts 266°
2026-05-07 10:03 51.47269 -0.44188 98 ft 2 kts 266°
2026-05-07 10:03 51.47270 -0.44164 98 ft 2 kts 266°
2026-05-07 10:04 51.47271 -0.44140 98 ft 1 kts 266°
2026-05-07 10:04 51.47272 -0.44124 98 ft 2 kts 262°
2026-05-07 10:04 51.47275 -0.44101 98 ft 2 kts 241°
2026-05-07 10:04 51.47284 -0.44082 98 ft 2 kts 224°
2026-05-07 10:05 51.47296 -0.44067 98 ft 2 kts 208°
2026-05-07 10:05 51.47310 -0.44059 98 ft 2 kts 191°
2026-05-07 10:05 51.47321 -0.44057 98 ft 1 kts 180°
2026-05-07 10:05 51.47322 -0.44057 98 ft 0 kts 180°
2026-05-07 10:09 51.47320 -0.44057 98 ft 1 kts 180°
2026-05-07 10:09 51.47302 -0.44057 98 ft 4 kts 180°
2026-05-07 10:10 51.47264 -0.44056 98 ft 6 kts 179°
2026-05-07 10:10 51.47207 -0.44054 98 ft 9 kts 179°
2026-05-07 10:10 51.47133 -0.44056 98 ft 11 kts 182°
2026-05-07 10:10 51.47046 -0.44060 98 ft 13 kts 182°
2026-05-07 10:11 51.46947 -0.44064 98 ft 14 kts 180°
2026-05-07 10:11 51.46856 -0.44061 98 ft 12 kts 178°
2026-05-07 10:11 51.46771 -0.44057 98 ft 11 kts 179°
2026-05-07 10:11 51.46695 -0.44076 98 ft 10 kts 221°
2026-05-07 10:12 51.46668 -0.44183 98 ft 10 kts 263°
2026-05-07 10:12 51.46664 -0.44303 98 ft 10 kts 268°
2026-05-07 10:12 51.46663 -0.44424 98 ft 11 kts 270°
2026-05-07 10:12 51.46664 -0.44548 98 ft 11 kts 271°
2026-05-07 10:13 51.46665 -0.44677 98 ft 11 kts 271°
2026-05-07 10:13 51.46665 -0.44806 98 ft 11 kts 269°
2026-05-07 10:13 51.46663 -0.44940 98 ft 12 kts 269°
2026-05-07 10:13 51.46661 -0.45077 98 ft 12 kts 270°
2026-05-07 10:14 51.46660 -0.45215 98 ft 12 kts 269°
2026-05-07 10:14 51.46659 -0.45355 98 ft 12 kts 270°
2026-05-07 10:14 51.46660 -0.45494 98 ft 12 kts 271°
2026-05-07 10:14 51.46661 -0.45637 98 ft 12 kts 271°
2026-05-07 10:15 51.46662 -0.45777 98 ft 12 kts 269°
2026-05-07 10:15 51.46660 -0.45918 98 ft 12 kts 269°
2026-05-07 10:15 51.46659 -0.46060 98 ft 12 kts 271°
2026-05-07 10:15 51.46660 -0.46202 97 ft 12 kts 270°
2026-05-07 10:16 51.46659 -0.46344 98 ft 13 kts 270°
2026-05-07 10:16 51.46661 -0.46488 98 ft 12 kts 273°
2026-05-07 10:16 51.46659 -0.46630 97 ft 13 kts 268°
2026-05-07 10:16 51.46657 -0.46773 98 ft 13 kts 269°
2026-05-07 10:17 51.46657 -0.46917 98 ft 13 kts 270°
2026-05-07 10:17 51.46657 -0.47060 98 ft 13 kts 270°
2026-05-07 10:17 51.46656 -0.47206 98 ft 13 kts 269°
2026-05-07 10:17 51.46654 -0.47353 98 ft 13 kts 269°
2026-05-07 10:18 51.46655 -0.47501 98 ft 13 kts 271°
2026-05-07 10:18 51.46654 -0.47649 98 ft 13 kts 270°
2026-05-07 10:18 51.46654 -0.47798 98 ft 13 kts 270°
2026-05-07 10:18 51.46654 -0.47946 98 ft 13 kts 270°
2026-05-07 10:19 51.46653 -0.48093 98 ft 13 kts 269°
2026-05-07 10:19 51.46651 -0.48242 97 ft 13 kts 270°
2026-05-07 10:19 51.46653 -0.48389 97 ft 13 kts 271°
2026-05-07 10:19 51.46653 -0.48534 98 ft 12 kts 270°
2026-05-07 10:20 51.46652 -0.48622 98 ft 1 kts 269°
2026-05-07 10:20 51.46652 -0.48638 98 ft 1 kts 269°
2026-05-07 10:20 51.46651 -0.48667 98 ft 4 kts 265°
2026-05-07 10:20 51.46633 -0.48725 98 ft 7 kts 225°
2026-05-07 10:21 51.46580 -0.48774 98 ft 10 kts 198°
2026-05-07 10:21 51.46503 -0.48749 98 ft 14 kts 135°
2026-05-07 10:21 51.46479 -0.48606 98 ft 0 kts 90°
2026-05-07 10:21 51.46479 -0.48601 98 ft 3 kts 90°
2026-05-07 10:22 51.46479 -0.48485 98 ft 23 kts 90°
2026-05-07 10:22 51.46480 -0.47868 98 ft 84 kts 91°
2026-05-07 10:22 51.46481 -0.46626 98 ft 137 kts 90°
2026-05-07 10:22 51.46491 -0.44869 167 ft 174 kts 91°
2026-05-07 10:23 51.46405 -0.42928 700 ft 172 kts 105°
2026-05-07 10:23 51.45861 -0.41197 1208 ft 178 kts 130°
2026-05-07 10:23 51.45127 -0.39697 1683 ft 170 kts 119°
2026-05-07 10:23 51.44710 -0.37902 1823 ft 181 kts 102°
2026-05-07 10:24 51.44194 -0.35973 1862 ft 200 kts 123°
2026-05-07 10:24 51.43584 -0.33867 1994 ft 216 kts 106°
2026-05-07 10:24 51.43209 -0.31430 2210 ft 232 kts 103°
2026-05-07 10:24 51.42844 -0.28824 2460 ft 248 kts 103°
2026-05-07 10:25 51.42466 -0.26091 2939 ft 254 kts 102°
2026-05-07 10:25 51.42107 -0.23433 3458 ft 257 kts 102°
2026-05-07 10:25 51.41729 -0.20658 3985 ft 260 kts 102°
2026-05-07 10:25 51.41382 -0.18131 4450 ft 264 kts 102°
2026-05-07 10:26 51.40973 -0.15153 4991 ft 267 kts 103°
2026-05-07 10:26 51.40574 -0.12262 5514 ft 269 kts 103°
2026-05-07 10:26 51.40185 -0.09444 5929 ft 273 kts 103°
2026-05-07 10:26 51.39784 -0.06544 5992 ft 272 kts 103°
2026-05-07 10:27 51.39397 -0.03752 6002 ft 273 kts 103°
2026-05-07 10:27 51.38989 -0.00816 6203 ft 278 kts 103°
2026-05-07 10:27 51.38568 0.02214 6845 ft 275 kts 103°
2026-05-07 10:27 51.38148 0.05225 7386 ft 276 kts 103°
2026-05-07 10:28 51.37723 0.08264 7891 ft 278 kts 103°
2026-05-07 10:28 51.37300 0.11286 8395 ft 280 kts 102°
2026-05-07 10:28 51.36939 0.13857 8813 ft 282 kts 102°
2026-05-07 10:28 51.36508 0.16923 9299 ft 283 kts 102°
2026-05-07 10:29 51.36136 0.19565 9701 ft 285 kts 102°
2026-05-07 10:29 51.35719 0.22527 10153 ft 287 kts 102°
2026-05-07 10:29 51.35264 0.25741 10626 ft 289 kts 102°
2026-05-07 10:30 51.34365 0.32083 11579 ft 294 kts 102°
2026-05-07 10:30 51.33910 0.35281 12082 ft 296 kts 102°
2026-05-07 10:30 51.33444 0.38549 12588 ft 299 kts 102°
2026-05-07 10:30 51.32983 0.41779 13107 ft 302 kts 102°
2026-05-07 10:31 51.32511 0.45075 13649 ft 304 kts 102°
2026-05-07 10:31 51.32032 0.48410 14201 ft 307 kts 102°
2026-05-07 10:31 51.31558 0.51706 14743 ft 309 kts 102°
2026-05-07 10:31 51.31068 0.55104 15264 ft 312 kts 102°
2026-05-07 10:32 51.30580 0.58485 15779 ft 314 kts 102°
2026-05-07 10:32 51.30065 0.61855 16271 ft 317 kts 105°
2026-05-07 10:32 51.29429 0.65265 16765 ft 320 kts 107°
2026-05-07 10:32 51.28781 0.68691 17245 ft 322 kts 107°
2026-05-07 10:33 51.28144 0.72121 17722 ft 325 kts 107°
2026-05-07 10:33 51.27511 0.75561 18040 ft 330 kts 107°
2026-05-07 10:33 51.26859 0.79108 18077 ft 330 kts 107°
2026-05-07 10:33 51.26209 0.82641 18192 ft 343 kts 107°
2026-05-07 10:34 51.25523 0.86361 18536 ft 353 kts 107°
2026-05-07 10:34 51.24828 0.90129 19053 ft 357 kts 107°
2026-05-07 10:34 51.24131 0.93897 19619 ft 360 kts 107°
2026-05-07 10:34 51.23413 0.97771 20170 ft 363 kts 107°
2026-05-07 10:35 51.22693 1.01649 20710 ft 366 kts 107°
2026-05-07 10:35 51.21964 1.05561 21244 ft 369 kts 107°
2026-05-07 10:35 51.21262 1.09323 21723 ft 372 kts 107°
2026-05-07 10:35 51.20726 1.12194 22081 ft 375 kts 107°
2026-05-07 10:36 51.19469 1.18905 22925 ft 379 kts 107°
2026-05-07 10:36 51.18592 1.23567 23474 ft 382 kts 107°
2026-05-07 10:36 51.17622 1.28720 24045 ft 386 kts 107°
2026-05-07 10:37 51.16844 1.32840 24489 ft 389 kts 106°
2026-05-07 10:37 51.16239 1.37076 24919 ft 392 kts 98°
2026-05-07 10:37 51.15968 1.41365 25343 ft 395 kts 94°
2026-05-07 10:37 51.15771 1.45693 25766 ft 398 kts 94°
2026-05-07 10:38 51.15568 1.50101 26191 ft 400 kts 94°
2026-05-07 10:38 51.15361 1.54512 26579 ft 403 kts 94°
2026-05-07 10:38 51.15146 1.59001 26942 ft 405 kts 94°
2026-05-07 10:38 51.14932 1.63435 27286 ft 408 kts 94°
2026-05-07 10:39 51.14710 1.67941 27626 ft 410 kts 95°
2026-05-07 10:39 51.14484 1.72509 27938 ft 412 kts 95°
2026-05-07 10:39 51.14257 1.77027 28243 ft 414 kts 95°
2026-05-07 10:39 51.14026 1.81616 28540 ft 416 kts 95°
2026-05-07 10:40 51.13792 1.86205 28824 ft 419 kts 95°
2026-05-07 10:40 51.13553 1.90854 29005 ft 426 kts 95°
2026-05-07 10:40 51.13051 2.00483 29062 ft 447 kts 95°
2026-05-07 10:41 51.12517 2.10580 29131 ft 468 kts 95°
2026-05-07 10:41 51.12239 2.15755 29137 ft 480 kts 95°
2026-05-07 10:41 51.11950 2.21099 29143 ft 492 kts 95°
2026-05-07 10:42 51.11650 2.26597 29245 ft 501 kts 95°
2026-05-07 10:42 51.11348 2.32095 29684 ft 503 kts 95°
2026-05-07 10:42 51.11046 2.37548 30387 ft 500 kts 95°
2026-05-07 10:42 51.10740 2.43007 31118 ft 496 kts 95°
2026-05-07 10:43 51.10429 2.48518 31694 ft 493 kts 95°
2026-05-07 10:43 51.10123 2.53895 32138 ft 493 kts 95°
2026-05-07 10:43 51.09813 2.59284 32541 ft 492 kts 95°
2026-05-07 10:43 51.09428 2.64732 32931 ft 492 kts 99°
2026-05-07 10:44 51.08692 2.69954 33066 ft 494 kts 105°
2026-05-07 10:44 51.07834 2.75200 33070 ft 493 kts 105°
2026-05-07 10:44 51.06090 2.85712 33070 ft 491 kts 105°
2026-05-07 10:45 51.04346 2.96165 33075 ft 492 kts 105°
2026-05-07 10:45 51.02656 3.06243 33073 ft 492 kts 105°
2026-05-07 10:46 51.00864 3.16874 33072 ft 492 kts 105°
2026-05-07 10:46 50.99091 3.27326 33070 ft 491 kts 105°
2026-05-07 10:47 50.97316 3.37732 33065 ft 491 kts 105°
2026-05-07 10:47 50.95522 3.48186 33063 ft 490 kts 105°
2026-05-07 10:48 50.93794 3.58202 33061 ft 490 kts 105°
2026-05-07 10:48 50.92181 3.67492 33060 ft 490 kts 106°